292P/Li (2014)

Japanese version
Home page
Updated on June 25, 2018

---------------------------------------------------------------------

* Profile

Designation 292P/2013 O1
Recovery Date July 24, 2013
Magnitude 18.6 mag
Recoverer R. H. McNaught (Siding Spring)

* Pictures

* Orbital Elements

Epoch 2014 Jan. 23.0 TT = JDT 2456680.5
T 2014 Feb. 4.83182 TT                                  MPCW
q   2.5223636            (2000.0)            P               Q
n   0.06508396     Peri.  319.05893     +0.57207543     -0.70909157
a   6.1209672      Node    91.86351     +0.81799760     +0.45643610
e   0.5879142      Incl.   24.35759     +0.06008016     +0.53745253
P  15.14
From 472 observations 1998 Sept. 23-2018 Apr. 23, mean residual 0".6.

* Finding Charts

* Magnitudes Graph

        m1 =  2.5 + 5 log d + 30.0 log r  [ ,0]  (             - 2014 Feb.  4)
        m1 = 10.5 + 5 log d + 10.0 log r  [0, ]  (2014 Feb.  4 -             )

---------------------------------------------------------------------

The orbital elements are published on M.P.E.C. 2018-H105.
The charts are made with StellaNavigator Ver.8 (AstroArts).
The magnitudes graphs are made with Comet for Windows.

---------------------------------------------------------------------

Copyright(C) Seiichi Yoshida (comet@aerith.net). All rights reserved.